Location: Lombard
(41.8800°N, 88.0080°W)
Time: 04:39:09
(UTC-05:00)

Vanguard 2 Rocket - Pass Details

Date: 24 February 2024
Orbit: 555 x 3307 km, 32.9° (Epoch: 12 April)

Event Time Altitude Azimuth Distance (km) Brightness Sun altitude
Rises 19:22:55 0° 276° (W) 5,934 12.7 -20.6°
Reaches altitude 10° 19:26:38 10° 270° (W) 5,241 11.9 -21.3°
Maximum altitude 19:41:50 44° 206° (SSW) 3,970 10.1 -24.1°
Enters shadow 19:58:09 14° 146° (SE) 5,835 10.6 -27.1°
Drops below altitude 10° 19:59:58 10° 143° (SE) 6,140 - -27.4°
Sets 20:04:49 0° 137° (SE) 6,990 - -28.3°
